Location: Vinland
(47.7731°N, 122.6974°W)
Time: 06:24:41
(UTC+00:00)

Vanguard 2 - Pass Details

Date: 27 April 2024
Orbit: 552 x 2914 km, 32.9° (Epoch: 25 May)

Event Time Altitude Azimuth Distance (km) Brightness Sun altitude
Exits shadow 10:51:18 18° 246° (WSW) 4,395 10.8 -18.3°
Maximum altitude 11:02:26 46° 186° (S) 3,478 10.4 -17.0°
Drops below altitude 10° 11:18:36 10° 122° (ESE) 5,658 12.1 -15.1°
Sets 11:23:03 0° 116° (ESE) 6,543 12.6 -14.5°
